DW8626 Madrid ES current weather conditions

sailwx.info

Wind from 060 at 4 knots gusting 6

Air temperature 17.2° C
Dewpoint 9.1° C

Last reported at 2014-Oct-20 07:43 UTC.
Time now 2014-Oct-20 08:13 UTC

Location: N 40°29' W 003°43'.
View on Google Maps.

See reports from other nearby stations

  
Tides and Currents Weather Stations Pressure Air Temp Water Temp Dewpoint Dewpoint Depression Visibility Wind Speed Wind Dir Waves Ship Positions
date/time (UTC)wind fromknots sea level pressurealtimeterstation pressurevisibilityair tempwater tempwave heightnotes
2014-Oct-20 07:43 060 4 gusting 6 17.2
2014-Oct-20 07:29 020 3 gusting 6 17.2
2014-Oct-20 07:13 070 3 gusting 7 17.2
2014-Oct-20 06:59 037 1 gusting 3 16.7
2014-Oct-20 06:13 056 2 gusting 12 16.7
2014-Oct-20 06:00 012 0 gusting 5 17.2
2014-Oct-20 05:44 012 0 gusting 6 17.2
2014-Oct-20 05:28 046 1 gusting 6 17.2
2014-Oct-20 05:13 021 5 gusting 7 17.2
2014-Oct-20 04:58 068 4 gusting 6 17.2
2014-Oct-20 04:43 045 0 gusting 6 17.2
2014-Oct-20 04:28 131 2 gusting 6 17.2
2014-Oct-20 04:13 061 4 gusting 6 17.8
2014-Oct-20 03:58 059 0 gusting 4 17.8
2014-Oct-20 03:43 057 1 gusting 3 18.3
2014-Oct-20 03:30 060 0 gusting 0 18.3
2014-Oct-20 03:15 078 0 gusting 2 18.9
2014-Oct-20 02:58 044 20.0
2014-Oct-20 02:43 041 1 gusting 6 19.4
2014-Oct-20 02:28 050 19.4
2014-Oct-20 02:13 046 19.4
2014-Oct-20 01:58 023 0 gusting 8 19.4
2014-Oct-20 01:43 058 4 gusting 6 19.4
2014-Oct-20 01:28 008 2 gusting 6 18.9
2014-Oct-20 01:13 036 5 gusting 6 18.9
2014-Oct-20 00:57 039 0 gusting 8 18.3
2014-Oct-20 00:43 042 5 gusting 8 18.3
2014-Oct-20 00:28 030 6 gusting 10 18.9
2014-Oct-20 00:13 046 3 gusting 7 18.9
2014-Oct-19 23:58 039 4 gusting 6 18.9
2014-Oct-19 23:43 045 3 gusting 6 19.4
2014-Oct-19 23:28 033 2 gusting 4 19.4
2014-Oct-19 23:13 053 4 gusting 6 20.0
2014-Oct-19 22:58 046 3 gusting 5 20.0
2014-Oct-19 22:42 036 3 gusting 6 20.0
2014-Oct-19 22:14 111 21.7
2014-Oct-19 21:58 050 22.2
2014-Oct-19 21:43 126 0 gusting 4 21.7
2014-Oct-19 21:28 062 21.1
2014-Oct-19 21:13 033 1 gusting 6 21.1
2014-Oct-19 20:58 077 2 gusting 6 21.7
2014-Oct-19 20:42 148 6 gusting 8 21.7
2014-Oct-19 20:28 091 1 gusting 12 22.2
2014-Oct-19 20:13 058 4 gusting 11 22.8
2014-Oct-19 20:00 060 4 gusting 12 22.8
2014-Oct-19 19:45 046 5 gusting 9 22.8
2014-Oct-19 19:28 048 6 gusting 11 22.8
2014-Oct-19 19:13 046 6 gusting 10 22.2
2014-Oct-19 18:58 053 5 gusting 6 22.8
2014-Oct-19 18:43 051 2 gusting 6 22.2
2014-Oct-19 18:27 051 3 gusting 5 22.8
2014-Oct-19 18:13 043 2 gusting 6 22.8
2014-Oct-19 17:58 036 4 gusting 6 23.3
2014-Oct-19 17:43 023 2 gusting 4 23.3
2014-Oct-19 16:58 360 4 gusting 6 23.9
2014-Oct-19 16:42 021 4 gusting 6 24.4
2014-Oct-19 16:28 339 2 gusting 6 25.0
2014-Oct-19 16:13 027 3 gusting 4 25.6
2014-Oct-19 15:59 359 4 gusting 6 25.6
2014-Oct-19 15:43 352 5 gusting 6 25.6
2014-Oct-19 15:28 354 1 gusting 5 25.6
2014-Oct-19 15:00 039 1 gusting 3 25.0
2014-Oct-19 14:14 078 2 gusting 6 25.0
2014-Oct-19 13:58 331 2 gusting 6 25.0
2014-Oct-19 13:42 020 3 gusting 6 24.4
2014-Oct-19 13:28 013 0 gusting 6 24.4
2014-Oct-19 13:13 032 1 gusting 7 24.4
2014-Oct-19 12:28 105 1 gusting 5 23.9
2014-Oct-19 12:13 046 0 gusting 2 23.3
2014-Oct-19 11:28 145 0 gusting 8 22.8
2014-Oct-19 11:14 047 3 gusting 8 22.2
2014-Oct-19 10:58 042 0 gusting 7 21.7
2014-Oct-19 09:28 023 2 gusting 6 18.9
2014-Oct-19 08:59 043 4 gusting 7 18.3
2014-Oct-19 08:14 026 4 gusting 12 17.8
2014-Oct-19 07:59 041 6 gusting 10 17.2
2014-Oct-19 07:43 033 2 gusting 9 17.2
2014-Oct-19 07:28 028 3 gusting 10 17.2
2014-Oct-19 07:13 033 6 gusting 9 17.2
2014-Oct-19 06:28 046 11 gusting 13 17.8
2014-Oct-19 06:13 044 6 gusting 12 17.2
2014-Oct-19 05:58 049 6 gusting 13 17.8
2014-Oct-19 05:42 001 6 gusting 13 17.8
2014-Oct-19 05:27 065 1 gusting 12 17.8
2014-Oct-19 05:12 046 8 gusting 12 17.8
2014-Oct-19 04:45 061 6 gusting 13 18.3
2014-Oct-19 04:28 026 6 gusting 11 17.8
2014-Oct-19 04:12 056 7 gusting 12 17.8
2014-Oct-19 03:58 033 6 gusting 10 17.8
2014-Oct-19 03:43 049 6 gusting 9 18.3
2014-Oct-19 03:28 064 8 gusting 10 18.3
2014-Oct-19 03:13 063 3 gusting 7 17.8
2014-Oct-19 02:58 070 0 gusting 7 17.8
2014-Oct-19 02:43 026 2 gusting 10 17.8
2014-Oct-19 02:28 051 4 gusting 8 17.2
2014-Oct-19 02:13 028 4 gusting 10 17.2
2014-Oct-19 01:58 044 5 gusting 8 17.8
2014-Oct-19 01:43 036 6 gusting 11 17.2
2014-Oct-19 01:28 056 5 gusting 10 17.8
2014-Oct-19 01:13 021 7 gusting 11 17.8
2014-Oct-19 00:58 035 3 gusting 9 17.2
2014-Oct-19 00:43 044 4 gusting 6 18.3
2014-Oct-19 00:28 042 2 gusting 4 18.9
2014-Oct-19 00:13 064 2 gusting 8 18.9
2014-Oct-19 00:00 029 3 gusting 3 18.9
2014-Oct-18 23:45 044 3 gusting 10 19.4
2014-Oct-18 23:28 339 3 gusting 12 19.4
2014-Oct-18 23:12 050 1 gusting 6 19.4
2014-Oct-18 22:58 017 6 gusting 10 19.4
2014-Oct-18 22:43 039 7 gusting 10 18.9
2014-Oct-18 22:28 041 6 gusting 11 19.4
2014-Oct-18 22:13 020 5 gusting 7 20.0
2014-Oct-18 21:58 349 1 gusting 5 20.0
2014-Oct-18 21:43 068 2 gusting 8 20.0
2014-Oct-18 21:15 053 20.6
2014-Oct-18 20:58 044 5 gusting 10 20.6
2014-Oct-18 20:43 020 1 gusting 13 20.6
2014-Oct-18 20:27 035 8 gusting 12 20.6
2014-Oct-18 20:13 015 6 gusting 11 21.7
2014-Oct-18 19:58 023 5 gusting 8 21.7
2014-Oct-18 19:43 071 5 gusting 8 22.2
2014-Oct-18 19:28 032 2 gusting 5 22.2
2014-Oct-18 19:13 068 2 gusting 6 22.2
2014-Oct-18 18:58 057 6 gusting 9 22.2
2014-Oct-18 18:42 023 3 gusting 7 22.2
2014-Oct-18 18:28 060 3 gusting 6 22.2
2014-Oct-18 18:13 023 0 gusting 5 22.2
2014-Oct-18 17:58 019 23.3
2014-Oct-18 17:42 001 23.3
2014-Oct-18 17:28 271 23.9
2014-Oct-18 17:13 253 25.0
2014-Oct-18 16:58 293 25.6
2014-Oct-18 16:43 262 25.6
2014-Oct-18 15:58 191 25.6
2014-Oct-18 15:42 252 1 gusting 7 25.6
2014-Oct-18 15:28 235 0 gusting 6 26.1
2014-Oct-18 15:13 217 2 gusting 6 25.6
2014-Oct-18 14:58 160 2 gusting 9 25.6
2014-Oct-18 14:43 168 2 gusting 7 25.6
2014-Oct-18 14:28 148 1 gusting 6 25.6
2014-Oct-18 14:12 160 2 gusting 6 25.6
2014-Oct-18 13:57 190 1 gusting 5 25.6
2014-Oct-18 13:42 221 1 gusting 6 25.6
2014-Oct-18 13:28 117 25.0
2014-Oct-18 13:13 140 23.9
2014-Oct-18 12:57 181 23.9
2014-Oct-18 12:43 152 2 gusting 4 23.3
2014-Oct-18 12:28 131 0 gusting 1 22.8
2014-Oct-18 11:58 109 0 gusting 5 22.2
2014-Oct-18 11:43 166 1 gusting 4 21.7
2014-Oct-18 11:30 136 0 gusting 4 21.7
2014-Oct-18 10:58 141 21.1
2014-Oct-18 10:43 163 20.6
2014-Oct-18 10:28 051 0 gusting 2 20.6
2014-Oct-18 10:12 169 20.0
2014-Oct-18 09:57 141 21.1
2014-Oct-18 09:43 015 19.4
2014-Oct-18 09:28 117 18.9
2014-Oct-18 09:13 360 0 gusting 5 17.8
2014-Oct-18 08:45 070 0 gusting 5 16.7
2014-Oct-18 08:28 132 16.1
2014-Oct-18 08:13 061 2 gusting 6 16.1